Weather in Zhuravna

Russia / Moscow Oblast     54°40′09″N   38°35′35″E
temp.,
°C
wind,
m/s
gust,
m/s
humid.,
%
clouds,
%
prec.,
mm/h
press.,
hPa
HPBL,
m
27 november, sat
sat2700:00+1ssw61491100 0.0 1012530
03:00+1ssw51191100 0.0 1012418
06:00−1s51292100 0.0 1011363
09:00−1sse61488100 0.0 1011416
12:00+1sse71789100 0.0 1008527
15:00+2sse91888100 0.0 1005727
18:00+1sse91897100 0.6 1003821
21:00+2s91895100 1.3 1001680
28 november, sun
sun2800:00+3s81796100 0.0 1001534
03:00+3ssw81595100 0.0 1002543
06:00+3ssw61394100 0.1 1002405
09:00+3sw5119099 0.1 1004354
12:00+3sw5118971 0.0 1005497
15:00+2wsw588694 0.0 1007297
18:000ssw499299 0.0 1009178
21:000ssw3790100 0.0 1010133
29 november, mon
mon2900:000ssw3488100 0.0 101155
03:00+1sse3589100 0.0 101096
06:00+2se4997100 0.0 1008188
09:00+2se51296100 0.0 1007277
12:00+3se51198100 0.1 1004266
15:00+4ese61498100 0.3 1000453
18:00+5se71498100 1.8 995507
21:00+6se71597100 4.0 991512
30 november, tue
tue3000:00+7sse71697100 3.9 984726
03:00+8s61396100 5.0 980475
06:00+8ssw71396100 6.3 976559
09:00+2sw132196100 16.0 980805
12:00+2sw111996100 3.6 9821061
15:00+2sw111882100 4.1 9831172
18:00+1sw10177796 0.0 9851048
21:000ssw101688100 0.1 9841079
1 december, wed
wed100:000sw91484100 0.1 985889
03:00−2w71191100 0.3 987823
06:00−3w61089100 0.3 990786
09:00−3w7108389 0.8 993780
12:00−3w6975100 0.0 994825
15:00−3w587623 0.0 995972
18:00−3w597898 0.0 996858
21:00−2wsw598987 0.0 996710